Location: Kaltenbach
(49.2000°N, 7.7500°E)
Time: 01:08:32
(UTC+00:00)

AQUARIUS - Pass Details

Date: 24 January 2020
Orbit: 651 x 652 km, 98.0° (Epoch: 28 February)

Event Time Altitude Azimuth Distance (km) Brightness Sun altitude
Rises 16:48:30 0° 164° (SSE) 2,961 7.6 -6.3°
Reaches altitude 10° 16:50:42 10° 165° (SSE) 2,055 6.8 -6.6°
Maximum altitude 16:55:12 90° 254° (WSW) 660 4.2 -7.3°
Drops below altitude 10° 16:59:44 10° 346° (NNW) 2,071 6.7 -8.0°
Sets 17:01:57 0° 347° (NNW) 2,987 7.5 -8.3°
